Regional Weather Roundup
Issued by NWS

Home | Current Version | Previous Version | Text Only | Print | Product List | Glossary On
Versions: 1 2 3 4 5 6 7 8 9 10 11 12 13 14 15 16 17 18 19 20 21 22 23 24 25 26 27 28 29 30 31 32 33 34 35 36 37 38 39 40 41 42 43 44 45 46 47 48 49 50
000
ASUS44 KLIX 311411
RWRLA
LOUISIANA WEATHER ROUNDUP
NATIONAL WEATHER SERVICE NEW ORLEANS LA
900 AM CDT TUE MAY 31 2016

NOTE: "FAIR" INDICATES FEW OR NO CLOUDS BELOW 12,000 FEET WITH NO
      SIGNIFICANT WEATHER AND/OR OBSTRUCTIONS TO VISIBILITY.
      SKY/WX - SKY CONDITION AND SIGNIFICANT WEATHER.
      TMP - AIR TEMPERATURE.    DP   - DEWPOINT TEMPERATURE.
      RH  - RELATIVE HUMIDITY.  PRES - PRESSURE.
      HX  - HEAT INDEX.         WCI  - WIND CHILL INDEX.

*  THESE STATIONS ARE NOT NWS OR FAA STATIONS AND ARE NOT UNDER
   NWS QUALITY CONTROL.

LAZ040-048-061>063-065-066-069-311500-
SOUTHEAST LOUISIANA

CITY           SKY/WX    TMP DP  RH WIND       PRES   REMARKS
N.O. AUDUBON   NOT AVBL
N.O. INTL ARPT MOSUNNY   81  72  74 CALM      29.96R
N.O. LAKEFRONT MOSUNNY   79  72  79 CALM      29.96S
N.O. DOWNTOWN* FAIR      81  72  74 CALM      29.97R
RESERVE*       FAIR      82  74  79 CALM      29.97R
SLIDELL        SUNNY     80  73  79 CALM      29.96R
BATON ROUGE    MOSUNNY   81  70  69 CALM      29.95S
BOOTHVILLE     SUNNY     81  73  76 N3        29.97R
BELLE CHASSE   PTSUNNY   81  72  74 N3        29.96R
BOGALUSA*      FAIR      78  70  74 CALM      29.97F
GALLIANO*      MOSUNNY   82  73  74 CALM      29.96R
NEW ROADS*     FAIR      77  72  82 CALM      29.95S
GONZALES*      FAIR      79  72  79 CALM      29.96R
HAMMOND*       MOSUNNY   79  70  73 CALM      29.96S
HOUMA*         SUNNY     81  73  78 CALM      29.96
PORT FOURCHON* MOSUNNY   82  70  65 CALM      29.96R

$$

LAZ041-044-053-054-311500-
SOUTHWEST LOUISIANA

CITY           SKY/WX    TMP DP  RH WIND       PRES   REMARKS
LAKE CHARLES   SUNNY     81  72  74 VRB6      29.92F
LAFAYETTE      PTSUNNY   82  72  71 VRB5      29.95R
PATTERSON      PTSUNNY   80  74  81 E3        29.96S
SALT POINT       N/A     81  73  76 VRB3      29.94R
NEW IBERIA     SUNNY     79  72  79 CALM      29.95S
CHENAULT AIRPK MOSUNNY  N/A N/A N/A CALM        N/A

$$

LAZ027-028-311500-
CENTRAL LOUISIANA

CITY           SKY/WX    TMP DP  RH WIND       PRES   REMARKS
FORT POLK      MOSUNNY   78  72  81 W7        29.93F
ALEXANDRIA INT SUNNY     77  72  84 W5        29.93R
ALEXANDRIA     MOSUNNY   76  72  87 VRB5      29.95R

$$

LAZ001-002-311500-
NORTHWEST LOUISIANA

CITY           SKY/WX    TMP DP  RH WIND       PRES   REMARKS
SHREVEPORT     MOSUNNY   77  72  84 W8        29.93R
BARKSDALE AFB  MOSUNNY   77  71  80 W5        29.93S
DTN SHREVEPORT SUNNY     77  71  82 SW6       29.93S

$$

LAZ014-016-311500-
NORTHEAST LOUISIANA

CITY           SKY/WX    TMP DP  RH WIND       PRES   REMARKS
MONROE         SUNNY     77  70  79 VRB5      29.95S
TALLULAH       MOSUNNY   78  70  76 S3        29.95R

$$




USA.gov is the U.S. government's official web portal to all federal, state and local government web resources and services.